This demonstration page uses our WeatherBlox Daily Observations layout. Learn more.

Left ArrowRight Arrow

Hourly Observations for December 30, 2020

Temp ( °F °C ) Dew Point ( °F °C ) Humidity (%) Winds ( mph kmh ) Pressure ( in mb ) Visibility ( mi km ) Precip ( " mm )
12:52 am 00:52 Mostly Cloudy 27 -2.8 23 -5 85 85 WNW 12 19 29.98 1015 10 16 0.00 0.00
1:52 am 01:52 Cloudy 28 -2.2 24 -4.4 85 85 NW 13 20 30.01 1016 10 16 0.00 0.00
2:37 am 02:37 Cloudy 30 -1.1 25 -3.9 82 82 NW 17 28 30.04 1017 10 16 0.00 0.00
2:52 am 02:52 Cloudy 30 -1.1 25 -3.9 82 82 NW 12 19 30.02 1017 10 16 0.00 0.00
3:50 am 03:50 Partly Cloudy 28 -2 21 -6 74 74 NW 21 33 30.05 1018 10 16 0.00 0.00
3:52 am 03:52 Partly Cloudy 29 -1.7 21 -6.1 72 72 NW 21 33 30.02 1017 10 16 0.00 0.00
4:52 am 04:52 Clear 24 -4.4 16 -8.9 71 71 NW 10 17 30.03 1017 10 16 0.00 0.00
5:52 am 05:52 Clear 22 -5.6 15 -9.4 75 75 W 8 13 30.09 1019 10 16 0.00 0.00
6:52 am 06:52 Clear 23 -5 17 -8.3 78 78 WSW 10 17 30.11 1020 10 16 0.00 0.00
7:52 am 07:52 Mostly Sunny 23 -5 15 -9.4 72 72 W 10 17 30.14 1021 10 16 0.00 0.00
8:52 am 08:52 Mostly Sunny 23 -5 15 -9.4 72 72 W 9 15 30.16 1021 10 16 0.00 0.00
9:52 am 09:52 Mostly Sunny 25 -3.9 15 -9.4 66 66 W 17 28 30.19 1022 10 16 0.00 0.00
10:52 am 10:52 Mostly Sunny 26 -3.3 15 -9.4 63 63 WNW 14 22 30.19 1022 10 16 0.00 0.00
11:52 am 11:52 Mostly Sunny 26 -3.3 15 -9.4 63 63 WNW 17 28 30.19 1022 10 16 0.00 0.00
12:52 pm 12:52 Partly Cloudy 26 -3.3 15 -9.4 63 63 WNW 18 30 30.17 1022 10 16 0.00 0.00
1:52 pm 13:52 Partly Cloudy 26 -3.3 16 -8.9 66 66 NW 17 28 30.18 1022 10 16 0.00 0.00
2:52 pm 14:52 Partly Cloudy 25 -3.9 15 -9.4 66 66 NW 17 28 30.19 1022 10 16 0.00 0.00
3:52 pm 15:52 Partly Cloudy 24 -4.4 15 -9.4 68 68 WNW 15 24 30.20 1023 10 16 0.00 0.00
4:52 pm 16:52 Partly Cloudy 24 -4.4 15 -9.4 68 68 WNW 7 11 30.22 1023 10 16 0.00 0.00
5:19 pm 17:19 Mostly Cloudy 22 -5.6 14 -10 71 71 WNW 7 11 30.26 1025 10 16 0.00 0.00
5:52 pm 17:52 Mostly Cloudy 16 -8.9 12 -11.1 84 84 NW 6 9 30.24 1024 10 16 0.00 0.00
6:52 pm 18:52 Mostly Cloudy 17 -8.3 12 -11.1 80 80 NNW 5 7 30.23 1024 10 16 0.00 0.00
7:40 pm 19:40 Partly Cloudy 20 -6.7 14 -10 78 78 W 5 7 30.27 1025 10 16 0.00 0.00
7:52 pm 19:52 Mostly Clear 19 -7.2 13 -10.6 77 77 W 5 7 30.23 1024 10 16 0.00 0.00
8:52 pm 20:52 Clear 14 -10 10 -12.2 84 84 SE 3 6 30.23 1024 10 16 0.00 0.00
9:52 pm 21:52 Clear 13 -10.6 9 -12.8 84 84 SE 3 6 30.24 1024 10 16 0.00 0.00
10:52 pm 22:52 Clear 13 -10.6 10 -12.2 88 88 Calm 30.24 1024 10 16 0.00 0.00
11:25 pm 23:25 Clear with Mist and Fog 9 -12.8 7 -13.9 92 92 SSE 5 7 30.31 1026 2 3 0.00 0.00
11:40 pm 23:40 Clear 11 -11.7 9 -12.8 92 92 SSE 5 7 30.31 1026 8 13 0.00 0.00
11:52 pm 23:52 Clear 11 -11.7 9 -12.8 92 92 SE 7 11 30.24 1024 10 16 0.00 0.00

Powered by AerisWeather